Location: Smithers
(54.7670°N, 127.1670°W)
Time: 01:57:43
(UTC-07:00)

Daily predictions for brighter satellites

Satellite Brightness Start Highest point End
(mag) Time Altitude Azimuth Time Altitude Azimuth Time Altitude Azimuth
ADEOS Rocket 4.5 00:01:23 10° NNE 00:06:53 24° E 00:08:56 21° ESE
Terra 3.1 00:06:03 24° SW 00:08:04 33° W 00:12:24 10° NNW
SL-24 R/B 4.2 00:07:50 51° ESE 00:08:40 64° ENE 00:12:59 10° N
Cosmos 2237 Rocket 4.0 00:04:09 10° W 00:09:10 32° NW 00:14:13 10° NNE
DELTA 2 DEB (DPAF) 4.5 00:08:20 45° ESE 00:09:20 57° ENE 00:13:44 10° N
Mayak 0.3 00:07:02 10° NE 00:10:12 23° E 00:10:12 23° E
Cosmos 1452 Rocket 3.9 00:06:23 16° SW 00:10:37 61° WNW 00:15:52 10° NNE
Cosmos 1461 3.2 00:08:14 10° NW 00:13:02 72° SW 00:13:55 56° SSE
Spot 4 4.0 00:13:08 44° SSW 00:14:26 62° WSW 00:19:12 10° NNW
Cosmos 2173 Rocket 4.4 00:13:09 37° SE 00:15:09 50° E 00:21:15 10° NNE
ATLAS 5 CENTAUR R/B 2.8 00:09:55 10° NW 00:15:26 48° SW 00:17:13 38° S
Cosmos 2344 3.6 00:09:07 10° SW 00:16:48 82° SE 00:26:00 10° NE
CZ-4C R/B 2.2 00:14:51 35° SSW 00:17:14 68° SE 00:23:33 10° NE
Okean 2 Rocket 3.0 00:15:02 10° N 00:19:30 74° ENE 00:20:09 61° SE
Cosmos 1633 4.4 00:19:16 10° NW 00:22:04 22° W 00:22:45 20° WSW
Cosmos 1605 Rocket 4.2 00:18:47 29° SSW 00:22:12 72° WNW 00:28:39 10° N
USA 234 3.6 00:20:17 37° S 00:22:16 48° SW 00:28:35 10° WNW
Cosmos 1782 Rocket 3.7 00:17:56 10° NNW 00:22:24 69° W 00:23:13 55° SSW
CZ-4C R/B 3.3 00:26:24 64° E 00:26:34 65° ENE 00:30:31 10° N
CZ-4B R/B 4.2 00:23:04 10° NNE 00:27:23 33° E 00:27:38 33° ESE
Lacrosse 5 2.8 00:23:41 10° WNW 00:28:06 32° SW 00:28:06 32° SW
Meteor 1-10 Rocket 4.3 00:26:34 43° S 00:28:40 82° E 00:34:39 10° NNE
Cosmos 2016 Rocket 4.4 00:27:59 37° SE 00:29:43 46° E 00:35:32 10° NNE
SeaSat 1 2.4 00:28:34 47° SE 00:29:59 78° NE 00:34:57 10° NNW
Cosmos 1354 Rocket 4.3 00:25:50 10° NNW 00:31:06 60° ENE 00:32:47 40° ESE
Meteor 2-6 Rocket 4.2 00:29:06 43° S 00:31:07 84° ESE 00:37:06 10° NNE
ATLAS CENTAUR R/B 3.7 00:29:15 10° WNW 00:32:30 24° NNW 00:35:55 10° NE
Okean 1-7 2.8 00:33:24 72° SSE 00:33:46 80° E 00:38:04 10° NNE
Lacrosse 4 Rocket 3.8 00:32:59 10° NNW 00:36:25 22° NNE 00:39:54 10° ENE
GEOS 3 Rocket 4.1 00:32:58 10° NE 00:38:19 63° NW 00:43:35 10° WSW
Cosmos 1900 4.2 00:36:26 10° NW 00:41:23 85° SW 00:42:17 60° SSE
Tsikada Rocket 4.2 00:35:28 10° N 00:41:38 60° ENE 00:43:53 39° SE
Cosmos 1812 4.1 00:42:06 27° ENE 00:42:06 27° ENE 00:45:01 10° NNE
Cosmos 2151 Rocket 3.6 00:38:03 10° N 00:42:36 72° ENE 00:43:11 63° SE
Cosmos 1459 Rocket 3.9 00:44:58 46° S 00:46:57 79° E 00:53:05 10° NNE
CZ-4B R/B 4.4 00:48:15 10° ENE 00:48:52 10° NE 00:49:30 10° NE
Cosmos 2221 Rocket 3.5 00:50:03 69° S 00:50:37 90° N 00:55:12 10° NNE
Cosmos 389 Rocket 4.2 00:48:30 10° NW 00:51:07 24° W 00:51:07 24° W
Cosmos 1703 Rocket 4.0 00:52:59 45° WSW 00:53:50 53° WNW 00:58:06 10° N
Cosmos 1174 3.8 00:54:30 77° ESE 00:54:30 77° ESE 00:58:11 10° NE
COBE Rocket 3.7 00:50:19 10° NNE 00:55:13 74° ESE 00:55:52 63° SSE
Cosmos 1302 Rocket 4.1 00:55:15 52° SE 00:55:50 55° ESE 01:00:56 10° NNE
Cosmos 1943 Rocket 3.3 00:53:29 10° NW 00:58:09 29° WSW 00:59:10 27° SW
Cosmos 1975 4.1 00:55:36 10° N 00:59:18 32° ENE 00:59:53 30° E
SL-16 R/B 3.9 00:54:33 10° W 00:59:34 31° NW 01:04:36 10° NNE
H-2A R/B 2.1 00:59:36 63° SW 01:00:03 68° WSW 01:04:36 10° NNW
deb Chang Zheng 4 4.0 01:00:45 10° NNE 01:04:53 45° E 01:04:53 45° E
Cosmos 1782 4.3 01:04:20 26° W 01:05:23 29° WNW 01:08:55 10° N
Cosmos 1656 Rocket 4.0 01:00:42 10° NW 01:06:13 52° WSW 01:07:15 46° SSW
Meteor 1-11 Rocket 4.3 01:04:07 10° NNW 01:09:30 45° W 01:10:56 37° SW
Cosmos 1816 Rocket 4.4 01:03:58 10° N 01:10:12 83° ENE 01:12:12 46° SSE
Meteor 2-12 Rocket 4.3 01:10:13 48° S 01:12:04 89° W 01:18:12 10° NNE
Cosmos 1536 3.3 01:08:17 10° NNW 01:12:04 49° W 01:12:04 49° W
ALOS 2 3.0 01:13:04 49° WSW 01:13:19 50° W 01:17:37 10° NNW
CZ-4 R/B 4.2 01:12:18 10° N 01:17:03 58° WNW 01:18:24 43° WSW
Cosmos 1331 Rocket 4.2 01:17:36 41° SW 01:19:22 67° WNW 01:24:38 10° NNE
Cosmos 2346 Rocket 4.4 01:13:37 10° N 01:19:54 85° E 01:21:55 47° SSE
Cosmos 968 Rocket 3.5 01:16:41 10° NNW 01:21:57 79° ENE 01:23:16 52° SE
Cosmos 2061 Rocket 4.1 01:20:09 42° SSW 01:22:31 75° WNW 01:29:00 10° N
Cosmos 2100 Rocket 4.3 01:20:13 36° SW 01:22:49 62° WNW 01:29:11 10° N
Cosmos 1802 Rocket 4.0 01:20:58 43° SSW 01:23:05 74° WNW 01:29:22 10° N
Gblst 52 Del rocket 4.2 01:25:54 53° SSE 01:25:54 53° SSE 01:31:32 10° E
Meteor 1-27 Rocket 4.0 01:24:26 40° SW 01:26:27 64° WNW 01:32:14 10° N
USA 267 3.2 01:21:15 10° ENE 01:27:50 89° SSE 01:34:25 10° WSW
Cosmos 1943 3.7 01:26:36 28° WSW 01:29:30 58° NW 01:35:10 10° NNE
Cosmos 2369 Rocket 4.2 01:26:48 10° WNW 01:29:33 14° W 01:30:41 13° WSW
BREEZE M DEB (TANK) 4.4 01:24:56 10° W 01:28:44 23° WSW 01:28:44 23° WSW
Cosmos 1864 Rocket 4.4 01:29:08 47° S 01:31:08 86° E 01:37:26 10° NNE
Cosmos 1980 Rocket 3.9 01:26:44 10° NNW 01:31:38 30° NE 01:36:33 10° E
USA 32 4.1 01:26:57 10° N 01:32:14 69° E 01:33:29 51° SE
Meteor 1-12 Rocket 4.5 01:27:37 10° N 01:33:16 64° ENE 01:35:10 41° SE
COSMOS 2406 4.0 01:32:46 35° SE 01:33:32 36° ESE 01:38:43 10° NE
Cosmos 1697 Rocket 3.8 01:29:01 10° NNW 01:34:23 41° NE 01:39:27 11° ESE
Cosmos 1271 Rocket 4.5 01:33:50 10° NW 01:36:46 23° W 01:36:46 23° W
Cosmos 1503 Rocket 4.3 01:34:28 10° NW 01:39:29 47° WSW 01:39:57 45° SW
Cosmos 2233 Rocket 4.0 01:37:40 46° SSE 01:39:30 68° E 01:45:36 10° NNE
CZ-2C R/B 4.1 01:36:27 10° N 01:41:04 31° WNW 01:44:08 18° WSW
Okean 1 Rocket 3.0 01:37:28 10° NNW 01:41:59 75° W 01:42:16 72° SW
SL-16 R/B 4.1 01:37:49 10° ESE 01:43:08 30° NE 01:48:28 10° N
Cosmos 1300 Rocket 4.1 01:41:52 10° NNW 01:46:07 44° W 01:46:17 43° W
Mayak -0.8 01:42:14 10° N 01:46:20 51° WNW 01:46:50 48° W
Cosmos 2082 Rocket 4.4 01:48:31 11° ESE 01:50:19 13° E 01:52:38 10° ENE
Cosmos 1500 4.1 01:47:07 10° NNW 01:50:10 38° WNW 01:50:10 38° WNW
Geosat 4.1 01:47:21 10° NE 01:52:20 56° ESE 01:53:00 51° SSE
ADEOS Rocket 3.2 01:46:14 10° NNE 01:53:26 88° WNW 01:55:53 43° SSW
CZ-4C R/B 3.5 01:59:04 55° NNE 01:59:04 55° NNE 02:01:47 10° N
ATLAS 5 CENTAUR R/B 4.4 01:56:46 10° W 01:58:45 12° WSW 01:58:45 12° WSW
Cosmos 1656 3.9 01:54:45 10° NNW 02:00:30 72° NE 02:03:25 30° SE
Resurs 1-4 Rocket 4.4 01:59:04 10° NE 02:01:26 13° E 02:03:49 10° ESE
Cosmos 1725 Rocket 4.2 01:59:53 40° SW 02:02:03 63° WNW 02:08:13 10° N
Landsat 5 4.0 02:02:11 45° SE 02:03:19 61° ENE 02:07:48 10° N
Cosmos 1455 Rocket 3.5 02:00:18 10° N 02:04:37 53° ENE 02:05:33 44° ESE
CZ-4C R/B 3.2 02:00:33 10° W 02:06:06 50° NNW 02:12:39 10° NE
CZ-4B R/B 4.1 02:01:44 10° N 02:06:14 43° WNW 02:07:35 35° WSW
Cosmos 1975 Rocket 3.4 02:06:05 49° ESE 02:06:39 53° E 02:10:59 10° NNE
SeaSat 1 3.9 02:08:21 23° W 02:08:21 23° W 02:11:57 10° NW
Cosmos 1666 2.8 02:05:10 10° NNW 02:08:38 67° WNW 02:08:38 67° WNW
Iridium 2 4.0 02:10:11 56° WNW 02:10:11 56° WNW 02:13:47 10° N
Cosmos 1184 Rocket 3.3 02:13:09 59° N 02:13:09 59° N 02:15:57 10° NNE
ATLAS CENTAUR R/B 4.0 02:09:27 10° NW 02:12:40 22° N 02:16:03 10° ENE
Lacrosse 4 Rocket 1.8 02:11:28 10° NW 02:15:53 68° NE 02:17:39 35° ESE
PSLV R/B 3.8 02:13:00 10° NNE 02:17:17 55° E 02:17:48 51° SE
Cosmos 1812 3.8 02:17:13 33° WNW 02:17:26 33° WNW 02:21:00 10° N
CZ-4B R/B 1.6 02:20:48 69° ENE 02:20:48 69° ENE 02:24:16 10° N
Cosmos 2369 3.6 02:15:14 10° NW 02:20:56 85° WSW 02:23:11 38° SSE
Okean 3 4.0 02:21:37 43° W 02:22:10 46° WNW 02:26:20 10° N
Cosmos 1743 3.1 02:19:04 10° NNW 02:22:42 53° W 02:22:42 53° W
Cosmos 1833 Rocket 4.2 02:23:18 20° SE 02:25:13 24° ESE 02:29:39 10° NE
Cosmos 1689 Rocket 2.8 02:25:59 55° NNE 02:25:59 55° NNE 02:28:40 10° N
Cosmos 1544 Rocket 3.4 02:22:46 10° N 02:27:08 85° ENE 02:27:48 63° SSE
Cosmos 909 Rocket 3.9 02:21:34 10° NW 02:27:55 73° SW 02:31:19 29° SSE
Cosmos 1674 Rocket 4.4 02:27:40 35° W 02:28:25 38° WNW 02:32:33 10° N
Cosmos 1242 Rocket 2.5 02:25:38 10° NNW 02:29:08 83° NNW 02:29:08 83° NNW
Okean 1 3.5 02:29:44 57° W 02:29:58 58° WNW 02:33:58 10° N
Cosmos 1992 Rocket 4.0 02:31:12 46° SW 02:32:44 75° WNW 02:38:01 10° NNE
Cosmos 1975 3.9 02:32:07 10° NNW 02:35:40 33° W 02:35:40 33° W
Cosmos 2084 Rocket 4.0 02:36:22 42° SE 02:36:22 42° SE 02:40:19 10° ENE
Meteor 2-9 Rocket 4.1 02:31:38 10° NNW 02:37:13 78° W 02:38:58 45° S
Lacrosse 5 rocket 3.3 02:47:04 17° SE 02:47:04 17° SE 02:49:26 10° E
Cosmos 1378 Rocket 4.4 02:47:22 35° W 02:48:14 39° WNW 02:52:24 10° N
Cosmos 1777 Rocket 4.2 02:46:44 10° NW 02:51:52 53° WSW 02:53:00 44° SSW
Cosmos 1867 3.6 02:47:04 10° NW 02:52:28 59° SW 02:54:25 37° S
MOS 1 Rocket 3.2 02:49:54 10° NNE 02:54:31 83° WNW 02:55:53 47° SSW
Cosmos 332 Rocket 4.5 02:55:09 33° SSE 02:56:40 43° ESE 03:01:13 10° NE
Cosmos 371 Rocket 4.1 02:55:50 31° SSE 02:57:27 42° ESE 03:02:01 10° NE
Cosmos 44 Rocket 4.4 02:53:01 10° NW 02:57:56 47° NNE 03:02:56 10° ESE
Cosmos 2034 Rocket 4.0 02:55:25 34° S 02:58:20 82° E 03:04:36 10° NNE
Cosmos 1092 Rocket 4.0 02:56:29 10° N 03:02:44 80° ENE 03:06:47 24° SSE
Spot 2 4.3 02:58:47 10° NNE 03:03:29 89° E 03:05:07 43° SSW
Meteor 2-4 Rocket 3.5 03:03:46 39° SSW 03:05:52 89° ESE 03:11:17 10° NNE
CZ-2D R/B 3.2 03:01:40 10° NNE 03:06:42 37° E 03:10:00 19° SSE
SL-27 R/B 2.3 03:07:04 70° SE 03:07:11 71° ESE 03:10:31 10° NNE
USA 267 3.4 03:04:17 10° E 03:10:50 74° N 03:17:22 10° W
SWAS 4.4 03:09:45 49° SW 03:10:50 82° NW 03:15:08 10° NE
Cosmos 2278 4.0 03:07:38 10° NW 03:13:00 45° WSW 03:14:35 36° SSW
Cosmos 2360 Rocket 4.3 03:08:13 10° NNW 03:13:05 29° NE 03:17:57 10° E
Cosmos 1980 Rocket 2.1 03:10:39 10° NW 03:16:18 84° WSW 03:21:31 12° SSE
Gblst 52 Del rocket 4.2 03:12:48 17° W 03:17:13 64° S 03:23:21 10° ESE
COSMOS 2406 3.6 03:14:48 28° WSW 03:17:40 56° NW 03:23:20 10° NNE
Cosmos 1697 Rocket 2.8 03:13:03 10° NW 03:18:35 54° WSW 03:21:08 30° S
Mayak 1.5 03:20:34 10° NW 03:21:03 10° NW 03:21:33 10° NW
H-2A R/B 3.0 03:18:07 10° NNE 03:22:17 55° ESE 03:24:09 31° SSE
Cosmos 1464 Rocket 4.3 03:23:02 30° SW 03:26:00 55° WNW 03:32:14 10° N
SL-16 R/B 2.5 03:21:58 22° S 03:26:18 76° WSW 03:32:37 10° NNW
Cosmos 1544 3.8 03:24:33 10° N 03:28:10 52° ENE 03:30:28 20° SE
SL-16 R/B 2.9 03:23:44 10° NNW 03:29:20 56° NE 03:34:55 10° SE
Cosmos 2228 4.3 03:29:09 10° N 03:33:14 40° ENE 03:37:15 10° SE
Cosmos 2082 Rocket 2.5 03:30:21 28° S 03:33:16 61° ESE 03:38:51 10° NE
Exosat Rocket 4.4 03:31:09 10° NW 03:36:30 44° WSW 03:40:48 22° S
Cosmos 1606 Rocket 3.9 03:32:13 10° N 03:36:31 63° ENE 03:40:03 15° SSE
Nadezhda 4 Rocket 4.4 03:34:23 10° NNW 03:40:11 45° W 03:43:06 27° SW
Cosmos 1340 Rocket 2.7 03:40:10 40° SSW 03:41:31 78° WNW 03:45:30 10° NNE
Cosmos 1455 Rocket 4.4 03:38:45 10° NW 03:42:08 22° W 03:42:39 22° W
MOZ.5/SAFIR/RUBIN 5/SL-8 3.7 03:38:46 19° SSE 03:42:08 86° WSW 03:46:57 10° NNW
Resurs 1-4 Rocket 2.3 03:37:03 10° NNE 03:42:19 67° ESE 03:45:43 22° S
Cosmos 2322 Rocket 2.6 03:39:13 10° NNW 03:44:52 65° NE 03:50:28 10° SE
SJ 16-02 3.4 03:43:58 10° N 03:47:54 30° NE 03:51:48 10° ESE
ATLAS CENTAUR R/B 2.8 03:48:32 10° NW 03:52:33 43° NNE 03:56:50 10° ESE
Cosmos 1356 3.3 03:51:39 38° SSW 03:52:52 86° WNW 03:56:23 10° NNE
IRS-P3 4.1 03:47:35 10° NNE 03:52:59 83° WNW 03:56:15 24° SSW
CZ-4B R/B 3.7 03:54:15 13° WNW 03:54:15 13° WNW 03:55:29 10° WNW
Lacrosse 4 Rocket 2.8 03:50:43 10° WNW 03:53:56 23° WSW 03:53:56 23° WSW
NPP 3.6 03:48:52 10° NNE 03:54:17 77° WNW 03:57:34 25° SSW
COSMOS 2487 3.3 03:52:42 25° SSE 03:54:19 43° ESE 03:57:42 10° NE
CZ-4C R/B 3.9 03:50:08 10° WNW 03:55:56 40° N 04:02:39 10° ENE
ATLAS 3B R/B 4.5 03:51:59 10° SSE 03:57:19 23° ESE 04:02:30 10° ENE
SL-08 R/B 3.8 03:55:46 27° SSW 03:57:50 42° W 04:02:31 10° NNW
CBERS-1 4.0 03:53:00 10° NNE 03:58:09 76° WNW 04:01:14 24° SSW
Cosmos 1634 Rocket 4.0 03:54:14 20° S 03:58:42 87° W 04:05:02 10° N
Cosmos 1025 Rocket 2.9 03:56:43 28° SSW 03:58:58 83° W 04:03:17 10° N
UNK 4.3 04:00:49 27° SW 04:02:41 39° W 04:07:00 10° NNW
Cosmos 1805 3.8 04:00:59 10° N 04:04:53 60° ENE 04:08:44 10° SSE
Cosmos 1953 4.3 04:02:21 10° N 04:06:01 31° ENE 04:09:40 10° SE
Cosmos 1898 Rocket 3.6 04:02:29 10° NNW 04:07:34 55° WSW 04:12:39 10° S
Cosmos 1833 Rocket 2.7 04:04:59 23° SW 04:08:36 79° NW 04:14:17 10° NNE
SAR-Lupe-2 3.8 04:08:20 28° SSW 04:09:52 47° WSW 04:13:22 10° NNW
Cosmos 44 3.4 04:05:11 10° NW 04:10:15 61° SW 04:15:31 10° SSE
Cosmos 2208 Rocket 4.2 04:07:31 19° S 04:11:22 67° ESE 04:16:35 10° NNE
Cosmos 2279 Rocket 4.1 04:06:08 13° S 04:11:51 77° E 04:18:08 10° NNE
Cosmos 1766 3.1 04:08:22 10° NNW 04:12:16 83° W 04:15:41 13° S
AQUA 3.9 04:08:03 10° N 04:12:47 63° WNW 04:15:47 22° SW
Cosmos 2026 Rocket 4.2 04:07:02 10° NNW 04:13:15 56° W 04:18:33 14° SSW
Cosmos 2084 Rocket 4.0 04:12:53 18° W 04:15:51 50° NNW 04:19:52 10° NE
Aureole 2 Rocket 4.3 04:12:32 10° NNW 04:16:14 37° NE 04:19:45 10° ESE
Cosmos 1937 Rocket 3.5 04:12:33 10° NNW 04:17:42 60° WSW 04:22:47 10° S
Cosmos 1125 Rocket 4.4 04:15:06 10° NNW 04:20:20 52° NE 04:25:32 10° SE
Iridium 4 Rocket 3.7 04:20:22 22° SW 04:22:48 43° WNW 04:27:14 10° N
Cosmos 1570 Rocket 4.0 04:21:01 18° SSW 04:24:57 90° WNW 04:30:20 10° NNE
Lacrosse 5 rocket 1.5 04:22:44 22° SW 04:25:17 61° SSE 04:29:16 10° ENE
Cosmos 1356 Rocket 3.3 04:23:17 19° SSW 04:26:09 83° WNW 04:30:16 10° NNE
ARIANE 5 R/B 2.6 04:24:35 10° NNE 04:29:51 82° WNW 04:34:24 14° SSW
Spot 4 Rocket 4.0 04:25:47 10° NNE 04:30:58 79° WNW 04:35:23 14° SSW
Gbstr 26 Del rocket 4.3 04:24:09 13° WSW 04:31:08 68° S 04:37:36 10° E
APEX 4.4 04:26:38 18° SW 04:31:42 73° NW 04:37:03 10° NNE
Cosmos 1758 3.7 04:28:30 10° N 04:32:29 66° ENE 04:36:27 10° SSE
Cosmos 990 Rocket 4.2 04:27:42 10° NW 04:32:38 47° WSW 04:37:34 10° S
Okean 2 4.3 04:31:54 19° WSW 04:34:13 34° WNW 04:38:00 10° N
Helios 1A Rocket 3.0 04:31:59 10° NNE 04:36:12 88° ESE 04:39:57 13° SSW
Cosmos 468 Rocket 4.1 04:32:26 14° SSW 04:37:01 81° ESE 04:42:22 10° NNE
Cosmos 371 Rocket 4.1 04:34:29 16° WSW 04:37:57 39° NW 04:42:31 10° NNE
CZ-2D R/B 3.5 04:34:05 10° NNE 04:38:09 76° ESE 04:42:18 10° S
Cosmos 1607 4.2 04:32:57 16° WSW 04:38:17 70° NW 04:44:49 10° NE
Cosmos 44 Rocket 3.5 04:34:40 10° NW 04:39:38 53° SW 04:44:39 10° SSE
Cosmos 1733 3.6 04:37:04 10° N 04:40:56 67° ENE 04:44:48 10° SSE
Cosmos 372 Rocket 4.2 04:38:45 10° NNW 04:44:03 77° ENE 04:49:14 10° SSE
Cosmos 1726 Rocket 4.1 04:41:59 10° NNW 04:45:58 37° W 04:49:39 12° SSW
Cosmos 1814 Rocket 4.4 04:41:30 10° S 04:46:34 63° ESE 04:51:44 10° NNE
Cosmos 1066 Rocket 4.4 04:42:19 14° SW 04:46:53 55° WNW 04:52:12 10° N
CZ-2D R/B 2.7 04:41:44 10° N 04:46:54 46° WNW 04:51:19 14° SW
Cosmos 2150 Rocket 4.3 04:41:43 10° NW 04:47:00 50° WSW 04:52:14 10° S
Cosmos 2266 Rocket 3.9 04:42:37 10° NNW 04:48:42 78° W 04:54:48 10° S
Cosmos 1655 Rocket 4.4 04:44:26 10° NNW 04:50:27 46° W 04:56:29 10° SSW
USA 267 3.3 04:47:16 10° ESE 04:53:51 86° SSW 05:00:26 10° WNW
Cosmos 2298 Rocket 4.5 04:49:14 10° NW 04:54:12 40° WSW 04:59:07 10° S
IRS-1D 4.1 04:51:32 10° N 04:56:24 44° WNW 05:00:59 12° SW
H-2A R/B 4.0 04:54:10 10° N 04:57:34 24° WNW 05:00:45 11° WSW
Cosmos 2360 Rocket 2.2 04:52:09 10° NNW 04:57:48 89° WSW 05:03:26 10° SSE
BREEZE-M R/B 4.4 04:53:39 10° W 04:59:19 63° S 05:07:38 10° ESE
Cosmos 1980 Rocket 3.5 04:55:45 10° WNW 04:59:30 19° W 05:03:11 10° SW
USA 238 DEB 4.4 04:53:11 10° SSW 04:59:47 51° SE 05:06:31 10° NE
USA 238 4.4 04:53:18 10° SSW 04:59:53 51° SE 05:06:37 10° NE
UNKNOWN OBJECT B 2.8 04:56:55 10° N 05:00:48 65° WNW 05:04:35 10° SSW
Cosmos 1812 Rocket 3.7 04:58:38 10° N 05:03:10 85° E 05:07:38 10° SSE
Meteor 1-21 4.2 04:59:17 10° SSW 05:04:57 83° WNW 05:10:36 10° NNE
Okean 1-7 Rocket 4.4 05:01:24 12° SW 05:05:09 36° WNW 05:09:22 10° N
ADEOS II 2.2 05:01:36 10° NNE 05:06:55 82° ESE 05:12:11 10° SSW
Cosmos 1470 2.8 05:03:22 10° NNW 05:07:24 85° WSW 05:11:23 10° S
Cosmos 2058 Rocket 3.8 05:03:38 10° NNW 05:07:36 33° W 05:11:34 10° SSW
ADEOS 3.6 05:03:39 10° NNE 05:08:52 68° WNW 05:14:02 10° SSW
Cosmos 2228 4.0 05:06:59 10° NNW 05:10:40 28° W 05:14:19 10° SSW
SL-16 R/B 4.0 05:07:03 10° SW 05:10:59 18° W 05:15:06 10° NW
Cosmos 304 Rocket 4.3 05:07:21 11° SW 05:11:49 46° NW 05:16:30 10° NNE
Cosmos 2333 Rocket 3.5 05:06:27 10° NNW 05:11:55 45° NE 05:17:21 10° ESE
SL-16 R/B 2.7 05:08:08 10° NW 05:13:18 37° WSW 05:18:25 10° S
Cosmos 841 Rocket 3.7 05:09:43 10° SSW 05:14:53 78° ESE 05:20:08 10° NNE
Cosmos 1602 Rocket 3.8 05:10:38 10° S 05:14:56 74° E 05:19:17 10° NNE
USA 161 3.3 05:12:52 10° SE 05:15:41 37° ENE 05:18:21 10° N
COSMOS 2428 3.3 05:11:40 10° NNW 05:17:22 66° NE 05:23:02 10° SE
Cosmos 2082 Rocket 3.1 05:12:28 10° WSW 05:17:41 38° NW 05:22:59 10° NNE
Resurs 1-4 Rocket 3.3 05:17:25 10° N 05:21:48 27° NW 05:26:10 10° WSW
Cosmos 2219 Rocket 3.1 05:19:17 10° NNW 05:24:50 56° NE 05:30:21 10° SE
SJ 16-02 1.6 05:22:26 10° NW 05:26:42 48° WSW 05:30:56 10° S
Cosmos 2237 Rocket 3.9 05:21:54 10° NNW 05:27:12 38° NE 05:32:29 10° ESE
Cosmos 1626 Rocket 3.5 05:23:02 10° SSW 05:27:21 78° W 05:31:44 10° N
Cosmos 2322 Rocket 3.0 05:23:43 10° NW 05:28:35 30° WSW 05:33:24 10° SSW
COSMOS 2487 4.0 05:26:56 10° WSW 05:29:49 23° NW 05:32:42 10° N
Cosmos 540 Rocket 3.9 05:25:14 10° SSW 05:30:19 65° ESE 05:35:27 10° NNE
Cosmos 1378 3.3 05:26:55 10° S 05:30:40 81° E 05:34:28 10° NNE
Meteor 1-16 Rocket 4.4 05:25:03 10° NNW 05:30:50 85° ENE 05:36:23 10° SSE
